DELTA 1 DEB, 21295

Orbit data source: Space-Track

DELTA 1 DEB, 21295 is space debris in SSO originally from a launch on Thu, 12 Jun 1975 UTC launched from the Air Force Western Test Range (AFWTR). Debris objects in space refer to the collection of defunct objects orbiting the Earth. Examples of debris include non-operational satellites, rocket bodies, and fragments generated from explosions, collisions, or faulty payload assembly.

Loading next visibility...
Identifier
21295, 1975-052AG
Orbit
SSO
Country
Flag of USUS
Related business
Manufacturer
Unknown
Mission
Spacecraft
Bus & Motor
Unknown
Mass
Unknown
Launch date (UTC)
1975-06-12 (51 years ago)
Launch vehicle
Unknown
Launch site
Air Force Western Test Range (AFWTR)
Object type
Payload
Rocket body
Debris
Shape & HBR
Unknown shape, 0.2 m
Radar Cross Section
Medium (>0.1 m² and <1 m²)

Expand to show TLE details & history
Last TLE update: 1 day ago

TLE from 1 day ago
0 DELTA 1 DEB
1 21295U 75052AG  26168.10443618  .00000140  00000-0  31988-3 0  9995
2 21295  99.7387 354.6635 0018827 319.4926 165.2271 13.42992564717752
Epoch: 2026-06-17T02:30Z
TLE epoch observation values (Epoch: 2026-06-17T02:30:23.285Z)
Latitude
54.15092°
Longitude
-114.63062°
Altitude
1,120.58 km
Speed
7.291 km/s
True Right ascension
12h 33m 19s
True Declination
53° 59' 43"
Sunlit
Object was in daylight at epoch
Visualization orbit readout
Latitude
Unknown
Longitude
Unknown
Altitude
Unknown
Speed
Unknown
Apparent Right ascension
Unknown
Apparent Declination
Unknown
Sunlit
N/A
Visualization observer readout
Local Sidereal Time
20:22:37
Azimuth
Unknown
Elevation
Unknown
Doppler factor
Unknown
Orbital elements
Apogee altitude
1,109.536 km
Perigee altitude
1,081.395 km
Semi-major axis
7,473.602 km
Eccentricity
0.00188
Inclination
99.7387°
RAAN
354.6635°
Arg. of periapsis
319.4926°
True anomaly
165.28199°
Mean anomaly
165.2271°
Eccentric anomaly
165.25456°
Mean motion
3.3593 °/min
Orbital period
107.17 mins
BSTAR
0.00031988
Loading maneuver chart data...
Computing Atmospheric mass density...
Loading historical data...
Loading historical data...
Loading historical data...
Loading historical data...
Loading historical data...
Loading historical data...
Loading historical data...

Documentation

Showing up to 5 results
|